Flag for Romania Weather past 2 weeks in Oradea, Romania

Now
43 °F

Clear.


Feels Like: 35 °F
Forecast: 32 / 47 °F
Wind: 16 mph from South

Location: Oradea Airport

Current Time: Jan 30, 2015 at 8:01:07 AM

Latest Report: Jan 30, 2015 at 7:30 AM


Visibility: 10 mi

Pressure: 29.21 "Hg

Humidity: 61%

Dew point: 30 °F

Location of OradeaLocation

Historic Weather in Oradea — Graph

°F

Oradea temperature yesterday

Maximum temperature yesterday: 37 °F (at 4:30 PM)
Minimum temperature yesterday: 30 °F (at 3:00 AM)
Average temperature yesterday: 34 °F

Past Weeks' High & Low Weather Summary

 TemperatureHumidityPressure
High57 °F (Jan 17, 12:00 PM)100% (Jan 18, 8:30 PM)30.21 "Hg (Jan 18, 8:30 PM)
Low28 °F (Jan 26, 10:00 PM)26% (Jan 16, 2:00 PM)29.24 "Hg (Jan 30, 6:30 AM)
Average41 °F83%29.96 "Hg
* Reported Jan 15 6:00 AM — Jan 30 6:30 AM, Oradea, Weather by CustomWeather, © 2014

Note: Actual official high and low records may vary slightly from our data, if they occured in-between our weather recording intervals... More about our weather records

Advertising

Oradea weather history for previous 24 hours

 ConditionsComfort  
Time TempWeatherWind HumidityBarometerVisibility
6:30 AM
Jan 30
43 °FClear.14 mph61%29.24 "Hg10 mi
6:00 AM43 °FClear.14 mph61%29.27 "Hg10 mi
5:30 AM39 °FClear.7 mph70%29.27 "Hg10 mi
5:00 AM37 °FClear.7 mph75%29.27 "Hg10 mi
4:00 AM37 °FPassing clouds.7 mph75%29.30 "HgN/A
3:00 AM39 °FPassing clouds.9 mph70%29.36 "HgN/A
2:00 AM39 °FPassing clouds.7 mph70%29.39 "HgN/A
1:00 AM39 °FPassing clouds.9 mph70%29.42 "HgN/A
12:00 AM37 °FPassing clouds.12 mph81%29.45 "HgN/A
11:00 PM
Jan 29
36 °FOvercast.7 mph87%29.47 "HgN/A
10:30 PM36 °FClear.7 mph87%29.50 "Hg10 mi
10:00 PM36 °FClear.7 mph87%29.50 "Hg10 mi
9:30 PM36 °FClear.7 mph87%29.53 "Hg10 mi
9:00 PM36 °FClear.9 mph87%29.53 "Hg10 mi
8:30 PM34 °FClear.9 mph93%29.53 "Hg10 mi
8:00 PM36 °FClear.9 mph87%29.53 "Hg10 mi
7:30 PM36 °FPassing clouds.9 mph87%29.53 "HgN/A
7:00 PM36 °FPassing clouds.9 mph87%29.56 "HgN/A
6:30 PM36 °FMostly cloudy.9 mph87%29.56 "HgN/A
6:00 PM37 °FMostly cloudy.5 mph81%29.56 "HgN/A
5:30 PM37 °FMostly cloudy.2 mph81%29.56 "HgN/A
5:00 PM37 °FMostly cloudy.5 mph81%29.56 "HgN/A
4:30 PM37 °FMostly cloudy.7 mph81%29.59 "HgN/A
4:00 PM36 °FMore clouds than sun.7 mph81%29.59 "HgN/A
3:30 PM36 °FMostly cloudy.5 mph81%29.59 "HgN/A
3:00 PM36 °FMostly cloudy.2 mph81%29.62 "HgN/A
2:30 PM36 °FMostly cloudy.5 mph81%29.62 "HgN/A
2:00 PM36 °FLow clouds.7 mph81%29.62 "HgN/A
1:30 PM34 °FLow clouds.7 mph87%29.65 "HgN/A
1:00 PM34 °FLow clouds.9 mph87%29.65 "Hg6 mi
12:30 PM34 °FLow clouds.9 mph87%29.68 "Hg4 mi
12:00 PM32 °FLow clouds.12 mph93%29.71 "Hg4 mi
11:30 AM32 °FLow clouds.12 mph93%29.71 "Hg4 mi
11:00 AM32 °FLow clouds.14 mph93%29.71 "Hg4 mi
10:30 AM32 °FLow clouds.12 mph87%29.74 "Hg4 mi
10:00 AM32 °FLow clouds.9 mph87%29.74 "Hg4 mi
9:30 AM32 °FLow clouds.9 mph87%29.71 "Hg4 mi
9:00 AM32 °FLow clouds.9 mph87%29.71 "Hg4 mi
8:30 AM30 °FIce fog.12 mph93%29.71 "Hg3 mi
8:00 AM32 °FIce fog.12 mph87%29.74 "Hg3 mi
Weather by CustomWeather, © 2014

See weather overviewHow to use our weather pages